Simultaneous Nadir Overpasses (SNOs) Predictions

Prediction of SNOs between GOES-15 and TERRA Satellite Orbit:

Table of predicted SNOs for the next 14.0 days since TLE Epoch: 2/1/2025
Index Date Time (GOES-15) GOES-15 Lat,Lon TERRA Lat,Lon Distance(km) Time Diff (sec)
1 02/01/2025 17:11:17 -0.01, 61.73 0.64, 64.78 346.32 80
2 02/02/2025 05:30:53 0.01, 61.75 0.36, 60.01 197.29 80
3 02/04/2025 05:14:55 0.01, 61.78 -0.55, 64.50 309.00 80
4 02/04/2025 17:34:39 -0.01, 61.78 -0.43, 59.69 236.48 80
5 02/06/2025 17:13:20 -0.01, 61.83 0.47, 64.20 268.60 80
6 02/07/2025 05:32:56 0.00, 61.86 0.52, 59.43 276.78 80
7 02/09/2025 05:16:57 0.01, 61.91 -0.40, 63.92 228.61 80
8 02/09/2025 17:36:41 -0.00, 61.90 -0.60, 59.12 315.59 80
9 02/11/2025 17:15:21 -0.01, 61.95 0.32, 63.62 189.63 80
10 02/12/2025 05:34:57 0.01, 62.00 0.67, 58.86 357.07 80
11 02/14/2025 05:18:57 0.01, 62.04 -0.27, 63.35 149.12 80
12 02/14/2025 17:38:40 -0.01, 62.02 -0.75, 58.56 393.52 80
